Weather History for Hugo, OK

Change the Weather History Date:

Wednesday, October 3, 2012

  Actual Average Record
Temperature  
Mean Temperature 68 °F -  
Max Temperature 81 °F 83 °F 92 °F (2013)
Min Temperature 55 °F 56 °F 74 °F (2013)
Cooling Degree Days 3    
Growing Degree Days 18 (Base 50)    
Moisture  
Dew Point 55 °F    
Average Humidity 66    
Maximum Humidity 98    
Minimum Humidity 36    
Precipitation  
Precipitation 0.00 in - - ()
Sea Level Pressure  
Sea Level Pressure 29.98 in    
Wind  
Wind Speed 4 mph ()    
Max Wind Speed 13 mph    
Max Gust Speed 21 mph    
Visibility 9.9 miles    
Events      
Averages and records for this station are not official NWS values.
T = Trace of Precipitation, MM = Missing Value Source: Averaged Metar Reports

Daily Weather History Graph

Daily Weather History Graph

Search for Another Location

Airport:

Trip Planner

Search our weather history database for the weather conditions in past years. The results will help you decide how hot, cold, wet, or windy it might be!

Date:

Astronomy

Oct. 03, 2012 Rise Set
Actual Time 7:18 AM CDT 7:02 PM CDT
Civil Twilight 6:53 AM CDT 7:27 PM CDT
Nautical Twilight 6:24 AM CDT 7:56 PM CDT
Astronomical Twilight 5:55 AM CDT 8:25 PM CDT
Moon 9:07 PM CDT (10/3) 10:31 AM CDT (10/3)
Length of Visible Light 12h 34m
Length of Day
11h 44m
Waning Gibbous, 88% of the Moon is Illuminated
Oct 3
Waning Gibbous
Oct 8
Last Quarter
Oct 15
New
Oct 21
First Quarter
Oct 29
Full

Hourly Weather History & Observations

Time (CDT) Temp. Heat Index Dew Point Humidity Pressure Visibility Wind Dir Wind Speed Gust Speed Precip Events Conditions
12:15 AM 61.5 °F - 56.3 °F 83% 29.94 in 10.0 mi South 4.6 mph - N/A   Clear
12:35 AM 63.3 °F - 55.0 °F 74% 29.94 in 10.0 mi South 4.6 mph - N/A   Clear
12:55 AM 62.4 °F - 55.2 °F 77% 29.94 in 10.0 mi South 3.5 mph - N/A   Clear
1:15 AM 62.1 °F - 55.4 °F 79% 29.94 in 10.0 mi SSW 3.5 mph - N/A   Clear
1:35 AM 61.3 °F - 55.4 °F 81% 29.95 in 10.0 mi SSW 3.5 mph - N/A   Clear
1:55 AM 61.7 °F - 55.6 °F 80% 29.95 in 10.0 mi Calm Calm - N/A   Clear
2:15 AM 59.5 °F - 55.4 °F 86% 29.96 in 10.0 mi Calm Calm - N/A   Clear
2:35 AM 58.3 °F - 56.5 °F 94% 29.95 in 10.0 mi SSE 3.5 mph - N/A   Clear
2:55 AM 58.8 °F - 55.9 °F 90% 29.95 in 10.0 mi Calm Calm - N/A   Clear
3:15 AM 58.8 °F - 56.3 °F 91% 29.95 in 10.0 mi Calm Calm - N/A   Clear
3:35 AM 58.1 °F - 55.6 °F 91% 29.95 in 10.0 mi Calm Calm - N/A   Clear
4:15 AM 58.1 °F - 55.8 °F 92% 29.94 in 10.0 mi Calm Calm - N/A   Clear
4:35 AM 57.6 °F - 55.6 °F 93% 29.95 in 10.0 mi Calm Calm - N/A   Clear
4:55 AM 57.2 °F - 55.8 °F 95% 29.95 in 10.0 mi Calm Calm - N/A   Clear
5:15 AM 57.4 °F - 55.8 °F 94% 29.96 in 10.0 mi Calm Calm - N/A   Clear
5:35 AM 56.3 °F - 55.0 °F 96% 29.96 in 10.0 mi East 3.5 mph - N/A   Clear
5:55 AM 56.3 °F - 54.9 °F 95% 29.97 in 10.0 mi Calm Calm - N/A   Clear
6:15 AM 55.9 °F - 54.7 °F 96% 29.97 in 10.0 mi Calm Calm - N/A   Clear
6:35 AM 55.6 °F - 54.7 °F 97% 29.98 in 10.0 mi Calm Calm - N/A   Clear
6:55 AM 55.9 °F - 55.4 °F 98% 29.98 in 10.0 mi SE 3.5 mph - N/A   Clear
7:15 AM 56.3 °F - 55.4 °F 97% 29.98 in 10.0 mi Calm Calm - N/A   Clear
7:35 AM 56.7 °F - 55.8 °F 97% 29.98 in 10.0 mi Calm Calm - N/A   Clear
7:55 AM 56.7 °F - 55.9 °F 97% 29.99 in 7.0 mi ESE 3.5 mph - N/A   Clear
8:15 AM 58.1 °F - 57.2 °F 97% 29.99 in 7.0 mi Calm Calm - N/A   Clear
8:35 AM 59.7 °F - 58.1 °F 94% 30.00 in 10.0 mi Calm Calm - N/A   Clear
8:55 AM 61.2 °F - 58.3 °F 90% 30.01 in 10.0 mi Calm Calm - N/A   Clear
9:15 AM 63.5 °F - 58.5 °F 84% 30.01 in 10.0 mi SSE 4.6 mph - N/A   Clear
9:35 AM 65.5 °F - 58.5 °F 78% 30.02 in 10.0 mi South 3.5 mph - N/A   Mostly Cloudy
9:55 AM 66.9 °F - 58.3 °F 74% 30.02 in 10.0 mi South 3.5 mph - N/A   Mostly Cloudy
10:15 AM 69.4 °F - 57.9 °F 67% 30.02 in 10.0 mi SSW 6.9 mph - N/A   Scattered Clouds
10:35 AM 71.2 °F - 57.7 °F 62% 30.03 in 10.0 mi South 5.8 mph - N/A   Scattered Clouds
10:55 AM 72.5 °F - 58.1 °F 60% 30.03 in 10.0 mi South 8.1 mph - N/A   Clear
11:15 AM 74.5 °F - 57.2 °F 55% 30.03 in 10.0 mi SSW 6.9 mph - N/A   Clear
11:35 AM 75.4 °F - 55.9 °F 51% 30.03 in 10.0 mi SSW 8.1 mph - N/A   Clear
11:55 AM 76.6 °F - 56.7 °F 50% 30.02 in 10.0 mi SSW 5.8 mph - N/A   Clear
12:15 PM 77.4 °F - 57.0 °F 49% 30.01 in 10.0 mi SSW 4.6 mph - N/A   Clear
12:55 PM 78.8 °F - 56.3 °F 46% 30.00 in 10.0 mi SSE 5.8 mph - N/A   Overcast
1:15 PM 76.8 °F - 55.4 °F 47% 30.00 in 10.0 mi South 4.6 mph - N/A   Overcast
1:35 PM 79.7 °F - 55.4 °F 43% 29.99 in 10.0 mi SSW 10.4 mph - N/A   Mostly Cloudy
1:55 PM 78.6 °F - 54.9 °F 44% 29.98 in 10.0 mi SSW 5.8 mph - N/A   Scattered Clouds
2:15 PM 79.7 °F - 54.0 °F 41% 29.97 in 10.0 mi SSW 6.9 mph - N/A   Mostly Cloudy
2:35 PM 79.2 °F - 54.3 °F 42% 29.96 in 10.0 mi SSW 5.8 mph - N/A   Mostly Cloudy
2:55 PM 81.0 °F 80.4 °F 53.2 °F 38% 29.96 in 10.0 mi SSE 9.2 mph - N/A   Mostly Cloudy
3:15 PM 79.9 °F - 53.4 °F 40% 29.96 in 10.0 mi SSW 12.7 mph 17.3 mph N/A   Scattered Clouds
3:35 PM 81.3 °F 80.7 °F 53.2 °F 38% 29.96 in 10.0 mi South 12.7 mph 20.7 mph N/A   Scattered Clouds
3:55 PM 80.1 °F - 51.8 °F 37% 29.96 in 10.0 mi SSW 10.4 mph 17.3 mph N/A   Scattered Clouds
4:15 PM 79.9 °F - 51.8 °F 38% 29.95 in 10.0 mi South 6.9 mph 18.4 mph N/A   Scattered Clouds
4:35 PM 80.8 °F - 51.4 °F 36% 29.95 in 10.0 mi South 11.5 mph 16.1 mph N/A   Scattered Clouds
4:55 PM 78.6 °F - 51.6 °F 39% 29.96 in 10.0 mi South 5.8 mph - N/A   Scattered Clouds
5:15 PM 80.1 °F - 50.9 °F 36% 29.96 in 10.0 mi South 8.1 mph - N/A   Scattered Clouds
5:35 PM 79.7 °F - 50.7 °F 36% 29.96 in 10.0 mi South 11.5 mph - N/A   Scattered Clouds
5:55 PM 78.8 °F - 50.9 °F 38% 29.96 in 10.0 mi South 6.9 mph 16.1 mph N/A   Clear
6:15 PM 77.9 °F - 51.1 °F 39% 29.96 in 10.0 mi South 6.9 mph - N/A   Clear
6:35 PM 76.6 °F - 51.6 °F 42% 29.96 in 10.0 mi South 4.6 mph - N/A   Clear
6:55 PM 74.8 °F - 51.8 °F 44% 29.97 in 10.0 mi South 3.5 mph - N/A   Clear
7:15 PM 73.2 °F - 52.0 °F 47% 29.97 in 10.0 mi South 3.5 mph - N/A   Clear
7:35 PM 72.1 °F - 51.8 °F 49% 29.98 in 10.0 mi SSE 3.5 mph - N/A   Clear
8:15 PM 70.7 °F - 52.7 °F 53% 29.99 in 10.0 mi SSE 4.6 mph - N/A   Clear
8:35 PM 69.4 °F - 53.2 °F 56% 30.00 in 10.0 mi SSE 4.6 mph - N/A   Clear
8:55 PM 68.9 °F - 53.8 °F 58% 30.00 in 10.0 mi SSE 4.6 mph - N/A   Clear
9:35 PM 68.7 °F - 54.0 °F 59% 30.02 in 10.0 mi SSE 5.8 mph - N/A   Clear
9:55 PM 68.0 °F - 54.1 °F 61% 30.02 in 10.0 mi SSE 4.6 mph - N/A   Clear
10:15 PM 67.6 °F - 54.1 °F 62% 30.03 in 10.0 mi SSE 4.6 mph - N/A   Clear
10:35 PM 67.1 °F - 54.3 °F 63% 30.03 in 10.0 mi SSE 5.8 mph - N/A   Clear
10:55 PM 66.7 °F - 54.5 °F 65% 30.03 in 10.0 mi SSE 4.6 mph - N/A   Clear
11:15 PM 66.4 °F - 54.5 °F 66% 30.04 in 10.0 mi SSE 4.6 mph - N/A   Clear
11:35 PM 66.2 °F - 54.5 °F 66% 30.04 in 10.0 mi SSE 4.6 mph - N/A   Clear
11:55 PM 66.2 °F - 54.5 °F 66% 30.05 in 10.0 mi SSE 4.6 mph - N/A   Clear